Regional Weather Roundup
Issued by NWS

Home | Current Version | Previous Version | Graphics & Text | Print | Product List | Glossary On
Versions: 1 2 3 4 5 6 7 8 9 10 11 12 13 14 15 16 17 18 19 20 21 22 23 24 25 26 27 28 29 30 31 32 33 34 35 36 37 38 39 40 41 42 43 44 45 46 47 48 49 50
000
ASUS43 KFSD 270810
RWRSD

WEATHER ROUNDUP FOR SOUTH DAKOTA
NATIONAL WEATHER SERVICE SIOUX FALLS SD
200 AM CST FRI FEB 27 2015

NOTE: "FAIR" INDICATES FEW OR NO CLOUDS BELOW 12,000 FEET WITH NO
SIGNIFICANT WEATHER AND/OR OBSTRUCTIONS TO VISIBILITY.


SDZ001>005-009-010-012>017-270900-
NORTHWEST AND NORTH CENTRAL SOUTH DAKOTA

CITY           SKY/WX    TMP DP  RH WIND       PRES   REMARKS
BUFFALO          N/A     -3 -10  72 S7        30.22F WCI -16
FAITH            N/A     -1  -8  72 S9        30.37F WCI -16
MOBRIDGE       PTCLDY    -9 -15  75 CALM      30.44S
$$

SDZ012>016-024>037-041>051-057-063-072>074-270900-
SOUTHWEST AND SOUTH CENTRAL SOUTH DAKOTA

CITY           SKY/WX    TMP DP  RH WIND       PRES   REMARKS
RAPID CTY ARPT PTCLDY    -5 -10  79 CALM      30.31F
PIERRE         CLEAR     -2  -7  79 SW5       30.49S WCI -12
CUSTER         CLEAR    -15 -20  78 NW3       30.08F
ELLSWORTH AFB  PTCLDY    -1  -9  67 SE5       30.30F WCI -11
PHILIP         CLEAR     -8 -13  78 NW5       30.44F WCI -19
PINE RIDGE     CLEAR     -7 -12  79 CALM      30.33F
WINNER         FAIR      -6 -15  65 S5        30.48S WCI -17
$$

SDZ004>011-016>023-039-040-270900-
NORTHEAST SOUTH DAKOTA

CITY           SKY/WX    TMP DP  RH WIND       PRES   REMARKS
ABERDEEN       CLEAR    -14 -20  74 SW6       30.51F WCI -28
WATERTOWN      CLEAR    -10 -16  74 CALM      30.45S
SISSETON         N/A     -6 -12  75 N5        30.49S WCI -17
$$

SDZ017-020-022-023-036>040-048>070-270900-
SOUTHEAST SOUTH DAKOTA

CITY           SKY/WX    TMP DP  RH WIND       PRES   REMARKS
SIOUX FALLS    CLEAR     -7 -12  79 VRB3      30.53R
HURON          PTCLDY   -12 -17  78 W5        30.54S WCI -24
CHAMBERLAIN    CLEAR     -8 -12  83 SW3       30.52R
MITCHELL       CLEAR     -4 -10  75 W5        30.57R WCI -15
YANKTON        CLEAR     -2  -6  84 W6        30.58S WCI -14
$$

ABBREVIATIONS USED IN REMARKS
   TC - TEMPERATURE IN CELSIUS
  WCI - WIND CHILL INDEX
   HX - HEAT INDEX
  VSB - VISIBILITY



USA.gov is the U.S. government's official web portal to all federal, state and local government web resources and services.